Dewpoint
54 54 54 54 54 54 54 54 54 54 54 55 55 55 56 56 56 55 55 55 56 56 57 57 57 57 57 56 56 57 56 54 51 49 46 48 52 56 57 65 68 68 62 58 45 49 50 48 46 46 46 48 50 53 57 57 55 55 56 55 52 52 50 48 49 49 50 50 53 55 55 50 53 54 55 55 54 54 55 56 58 60 61 60 61 63 64 65
54 54 54 54 54 54 54 55 55 55 55 55 55 55 55 56 56 56 56 56 57 56 56 56 56 56 56 56 56 57 56 53 50 49 47 48 62 62 63 64 65 70 64 49 39 41 46 46 46 46 45 47 51 52 55 53 55 50 51 55 51 52 51 51 51 54 52 49 54 54 54 49 45 47 52 53 53 53 52 54 57 59 60 61 62 62 63 64
54 54 54 54 54 54 54 54 54 55 55 55 55 55 55 55 55 56 56 56 56 56 56 56 56 56 56 56 56 57 54 50 48 46 46 63 63 62 64 65 67 72 56 46 39 37 41 44 45 45 46 47 51 52 53 51 51 50 47 50 50 54 52 51 49 49 50 51 51 51 50 49 45 50 51 51 51 51 54 54 56 58 59 60 61 61 61 62
54 54 54 54 54 54 54 54 54 55 55 55 55 55 55 55 56 56 56 56 56 57 56 56 56 55 55 56 56 55 53 50 46 43 40 64 65 66 64 65 70 73 52 45 40 35 34 39 43 45 45 46 50 52 50 50 46 48 47 45 52 54 51 50 49 49 52 50 50 51 53 50 51 51 53 50 50 53 55 56 58 58 59 59 59 60 61 61
54 54 54 54 54 54 54 55 55 55 55 55 55 55 55 55 55 56 56 56 56 56 56 56 55 55 55 56 57 55 50 41 27 36 56 73 72 67 65 65 70 59 48 41 39 36 33 34 38 42 43 45 48 50 49 49 46 46 46 45 47 53 50 55 53 50 50 50 50 52 51 52 51 50 51 50 53 52 53 57 59 60 60 60 59 60 60 60
54 54 54 54 54 54 54 55 55 55 55 55 55 55 55 55 55 55 55 56 56 56 56 55 55 56 56 57 55 52 47 22 33 32 69 72 72 69 67 66 69 52 45 39 35 33 33 32 33 40 42 44 47 47 48 47 45 43 46 46 52 50 51 54 49 49 50 49 50 51 51 46 47 49 50 49 52 52 53 58 59 60 61 60 60 60 60 60
53 54 54 54 54 54 54 55 55 54 55 55 55 55 55 55 55 55 55 56 56 56 57 56 56 56 56 57 53 50 45 37 41 43 72 72 72 71 68 68 70 47 42 36 31 29 32 33 34 38 43 44 46 47 46 45 44 43 43 45 48 50 49 57 49 50 50 50 48 49 45 43 46 51 46 46 49 52 53 60 60 60 61 61 61 60 60 61
53 54 54 54 54 54 54 54 54 54 55 55 56 56 55 55 55 55 55 56 56 56 56 57 56 56 56 53 49 46 43 38 39 38 72 72 68 70 68 61 56 43 36 32 28 27 29 33 37 41 43 44 45 47 47 43 41 41 43 43 43 48 49 52 51 50 49 48 48 48 45 44 46 48 49 46 48 52 56 60 60 60 61 61 61 61 61 61
53 54 54 54 54 54 54 54 55 55 55 55 55 55 55 55 55 55 55 56 56 56 56 57 57 57 57 53 47 40 37 41 38 34 61 61 62 61 57 55 51 40 33 30 28 26 27 32 39 43 42 44 46 46 45 41 38 41 42 42 42 43 49 52 49 48 48 48 49 49 44 44 42 45 44 47 49 52 57 59 60 60 60 61 61 61 62 61
53 54 54 54 54 54 54 54 55 55 55 55 55 55 55 55 55 55 55 55 55 56 56 57 58 57 55 51 44 38 35 39 41 39 53 51 59 54 51 49 46 39 34 31 29 27 26 31 40 44 43 42 45 45 43 39 35 41 42 41 41 41 44 47 44 46 47 47 49 49 43 40 44 45 45 49 52 54 55 57 58 59 59 59 60 61 62 61
54 54 54 54 54 54 54 54 55 55 55 55 54 54 54 55 55 55 55 55 55 56 57 58 59 57 52 50 42 33 37 36 35 37 44 48 51 48 45 43 44 39 35 32 29 28 27 29 41 42 41 39 40 41 42 38 35 34 36 41 40 39 39 44 44 44 46 47 49 49 43 42 44 43 45 49 52 53 54 55 57 58 59 59 59 60 61 62
54 53 54 54 54 54 54 55 55 55 54 54 54 54 54 54 54 54 54 55 55 56 57 58 58 55 53 49 42 37 36 36 36 39 39 42 43 43 41 37 40 38 35 30 29 28 27 28 37 39 35 38 36 38 38 39 36 33 33 32 37 39 38 39 43 46 48 48 49 47 44 40 38 37 45 48 50 52 53 55 56 57 58 58 58 59 61 61
53 54 54 53 54 53 54 54 54 54 54 54 54 54 54 53 53 53 54 54 55 56 58 57 58 55 51 45 46 45 42 41 38 37 35 35 39 39 37 32 36 34 32 30 30 29 29 30 36 37 34 33 36 36 41 38 36 35 34 33 34 36 37 40 40 40 43 42 42 42 42 39 38 37 44 50 50 50 51 52 55 57 57 57 58 59 60 60
53 54 53 53 54 54 54 54 54 54 53 53 54 53 52 52 53 54 54 55 56 57 58 58 57 54 52 47 44 41 43 42 40 39 37 37 34 35 34 32 33 34 31 31 32 34 34 35 36 35 33 31 31 38 36 34 33 33 34 34 34 37 36 39 40 40 40 41 41 41 39 39 39 38 41 49 50 50 50 51 54 56 56 57 57 59 60 60
53 54 53 54 53 54 54 53 53 53 53 53 53 52 52 52 53 55 55 56 57 59 59 58 56 53 50 48 48 48 61 54 48 43 39 36 31 31 32 32 30 34 34 31 31 33 36 36 35 33 30 30 30 31 33 33 32 32 32 32 34 36 37 38 41 40 39 40 41 40 39 38 37 38 39 47 50 50 49 50 52 53 55 55 58 59 59 59
53 53 53 53 54 54 54 53 52 53 53 52 51 51 53 54 55 57 56 56 57 58 57 55 53 53 49 46 41 47 51 48 45 45 43 38 30 31 30 31 31 32 34 33 33 32 34 36 34 31 29 27 27 29 32 32 31 31 31 32 33 36 36 37 38 39 39 38 40 39 37 38 37 35 42 49 49 49 49 50 50 52 53 54 58 58 58 59
53 53 53 53 54 54 53 52 52 52 51 51 51 51 52 54 56 56 56 59 59 57 54 52 52 53 44 44 47 39 36 45 44 40 39 39 31 31 33 26 28 31 32 33 33 33 33 34 34 31 27 25 26 29 30 30 30 30 30 30 31 34 36 35 35 35 38 37 37 39 37 36 34 34 48 50 50 49 50 51 51 52 53 54 57 58 58 58
53 53 53 54 54 53 53 52 52 51 50 50 50 50 49 52 57 57 57 57 54 54 52 52 50 48 46 49 45 41 35 35 40 37 37 34 30 27 27 30 25 27 29 29 31 31 32 32 31 27 25 24 25 27 28 27 29 30 28 27 28 29 32 34 33 33 34 36 35 37 37 35 35 35 48 50 50 50 51 52 52 51 52 53 57 57 58 58
53 53 53 54 53 53 53 52 51 50 50 50 51 51 50 57 52 46 46 53 52 51 48 49 50 36 21 37 38 37 36 39 37 36 31 28 28 27 25 33 27 26 27 27 28 30 31 31 31 28 24 24 23 25 26 27 30 30 30 26 27 27 28 29 32 32 30 34 32 34 34 34 34 34 40 48 49 50 50 51 52 50 52 53 56 57 58 59
53 53 53 53 53 53 52 52 51 50 49 48 46 44 41 20 30 40 43 20 18 18 17 19 29 41 35 31 32 36 36 31 33 34 30 26 27 25 24 33 34 31 29 27 28 30 31 30 30 28 26 24 24 24 24 26 27 30 30 27 26 26 27 28 29 30 27 32 31 32 34 34 34 33 34 40 46 50 51 50 49 51 54 55 57 58 58 59
54 53 53 53 52 52 52 51 50 49 49 47 46 41 16 14 13 12 16 18 20 21 22 23 24 22 15 19 23 25 24 24 25 30 32 28 22 22 23 32 34 31 29 28 29 32 31 30 30 30 28 26 24 23 23 22 24 25 27 26 25 26 26 26 26 27 27 29 31 32 32 33 34 33 34 43 46 47 47 48 50 51 55 55 57 58 58 60
53 53 53 52 52 51 51 50 50 49 49 48 45 27 17 15 15 17 18 18 20 22 22 22 22 22 24 23 23 23 23 21 22 24 29 24 18 20 27 31 32 31 32 32 32 30 29 28 29 30 30 29 27 23 22 21 21 23 25 25 23 23 25 26 25 25 26 26 31 32 32 33 33 33 35 46 45 46 48 48 50 51 55 55 56 58 58 59
53 53 53 52 51 50 50 50 48 49 49 46 37 18 17 17 18 19 22 23 22 24 23 23 23 22 21 22 21 19 19 21 21 23 25 22 17 19 28 29 29 30 33 33 31 30 27 27 27 29 29 29 28 27 22 21 21 22 24 25 23 21 19 22 24 24 24 26 27 32 29 31 32 33 34 44 45 45 48 50 52 52 54 56 55 57 57 58
54 53 53 52 51 50 50 49 49 42 37 36 37 20 19 20 19 21 23 22 22 24 24 24 24 25 24 22 22 19 16 19 22 22 26 20 17 21 24 26 25 28 29 31 31 29 27 28 28 28 29 29 28 27 26 22 20 21 24 25 22 20 19 19 22 23 23 25 26 29 30 31 31 31 31 34 46 46 48 50 53 53 55 56 56 57 58 58
53 53 53 51 50 50 48 48 34 30 36 38 22 23 23 23 22 25 24 24 25 25 28 27 26 23 24 27 21 10 12 15 20 23 26 20 18 22 22 23 26 27 29 30 30 29 28 29 28 27 28 29 27 26 25 24 22 22 23 24 22 20 19 19 20 21 21 22 26 26 32 30 33 31 30 30 33 43 49 48 51 54 55 56 56 56 57 58
53 53 52 51 51 50 48 38 28 36 38 33 26 25 25 23 23 26 22 23 24 27 28 26 28 25 25 20 23 14 14 16 21 22 25 22 24 19 21 19 25 26 30 30 29 29 28 29 28 26 26 26 26 25 25 24 24 23 22 23 22 20 20 20 19 17 23 24 25 25 26 31 34 31 32 32 31 36 49 47 50 53 55 56 56 57 57 59
52 52 51 50 50 49 38 28 34 40 35 31 28 26 25 23 30 25 23 25 26 29 24 28 26 18 23 20 21 12 4 7 19 22 23 29 19 18 17 17 22 26 30 30 31 28 30 29 27 24 23 24 25 24 25 24 22 21 20 19 19 19 20 21 20 16 22 22 22 22 23 30 30 28 32 32 31 37 46 48 52 52 55 55 56 56 58 59
52 51 50 50 49 49 44 42 43 39 34 34 26 25 25 27 29 24 29 18 18 18 15 20 21 20 18 20 19 7 5 14 16 20 23 26 21 15 15 17 18 23 25 28 26 29 30 28 25 22 19 22 23 24 24 23 21 19 19 18 17 18 19 20 20 17 16 20 22 23 24 27 30 34 31 31 29 34 42 48 52 53 55 56 56 56 58 60
51 51 51 50 49 48 48 46 44 40 39 34 24 23 23 26 24 24 25 21 18 18 25 18 26 20 20 20 15 10 5 16 15 19 24 26 22 16 14 16 17 19 22 24 24 25 27 26 24 21 17 16 21 22 20 20 18 17 18 22 21 19 19 19 17 15 18 22 21 27 22 24 29 33 31 32 29 31 36 48 51 54 55 55 55 56 57 59
51 51 50 50 47 43 41 41 39 35 32 27 22 23 23 23 25 24 23 21 14 11 18 18 17 15 17 18 15 10 6 5 11 22 23 24 25 21 18 18 17 17 17 19 20 23 23 30 28 19 17 17 19 19 18 16 16 18 18 18 18 16 17 19 17 21 22 16 18 18 16 16 24 28 29 29 27 28 30 39 51 54 54 55 55 56 56 57
50 50 49 49 46 42 43 40 29 32 35 25 22 21 22 24 21 19 13 19 10 14 16 15 13 13 13 14 17 17 7 6 5 8 21 23 24 22 20 16 17 15 13 13 15 17 19 20 23 20 20 17 20 20 19 18 17 18 18 18 17 17 23 19 18 20 15 13 23 15 13 13 17 28 27 28 30 28 28 29 50 52 53 54 55 56 56 57
49 48 49 48 47 48 43 38 37 39 33 22 20 21 21 17 20 19 9 12 9 14 13 13 13 11 11 14 16 20 21 8 8 8 15 22 23 22 21 17 15 13 13 11 11 15 15 17 18 19 27 17 16 18 19 19 18 18 18 18 14 22 17 16 18 13 11 12 18 12 12 11 15 21 32 28 28 29 29 29 50 51 53 53 54 55 56 57
48 48 48 49 49 46 45 45 40 37 29 19 22 21 18 21 14 16 9 15 12 16 13 13 12 11 10 12 14 18 22 18 10 10 11 19 21 23 22 21 16 14 13 13 10 14 15 17 18 18 18 22 17 15 16 16 17 18 17 17 14 16 12 12 17 17 16 14 10 9 13 10 23 20 24 27 26 26 28 29 50 51 52 53 54 55 56 57
48 48 47 49 47 47 46 47 43 40 21 24 21 18 17 16 15 27 14 14 14 15 13 11 12 10 10 12 14 17 14 16 18 15 15 15 19 21 22 22 21 16 15 16 9 11 14 15 16 17 17 18 17 16 16 15 15 16 16 13 15 14 15 12 14 11 12 21 10 6 9 13 9 14 26 23 24 23 28 28 41 51 52 53 54 55 56 57
48 48 47 46 45 44 47 46 45 23 22 22 19 17 14 14 16 15 14 15 14 14 12 12 12 9 9 12 13 13 14 14 15 16 18 16 15 19 21 21 22 22 16 12 14 13 12 17 19 19 19 18 17 17 17 15 13 14 14 14 17 14 21 15 20 20 21 21 19 9 6 18 12 27 24 27 20 22 22 26 42 50 52 54 53 55 56 56
46 45 45 44 42 35 34 22 23 24 24 23 21 20 11 13 15 15 13 15 14 13 11 11 11 9 8 9 11 11 14 14 15 21 18 19 15 18 21 22 22 23 21 13 19 13 15 15 19 19 19 18 18 19 17 17 13 13 13 11 12 16 14 27 31 21 26 23 16 30 27 11 13 13 21 19 20 21 21 19 34 48 50 53 53 54 55 55
45 45 44 43 43 38 35 27 24 28 27 25 20 18 18 18 17 13 17 12 13 12 10 10 10 10 10 10 11 9 12 14 20 23 21 21 21 16 21 22 24 24 24 22 17 16 17 16 17 17 17 18 19 19 18 18 16 11 10 12 16 18 14 19 19 25 16 14 18 13 13 14 11 14 13 16 16 16 18 17 15 41 47 49 50 52 53 54
46 45 46 46 45 43 32 40 31 33 27 24 21 23 18 17 12 11 11 12 11 10 11 11 11 13 11 11 10 10 14 15 21 21 21 22 21 25 26 28 26 28 26 24 22 20 17 16 16 17 17 18 18 18 17 18 18 12 11 16 13 13 10 18 26 19 17 15 16 14 11 15 15 20 11 11 12 14 16 17 14 23 45 48 49 51 52 53
46 42 38 29 36 26 33 42 28 28 26 22 21 18 14 9 10 9 11 11 10 11 10 10 11 12 13 12 13 14 17 18 21 22 20 22 22 24 26 30 30 30 32 31 25 22 22 17 18 18 16 16 17 17 16 15 17 17 15 13 14 15 12 19 14 22 21 24 17 17 13 12 18 15 12 10 11 13 16 17 14 16 43 47 48 50 51 52
41 40 38 36 31 27 34 25 22 27 26 22 18 12 12 9 11 11 10 10 7 12 12 11 13 14 14 14 13 16 19 21 20 20 22 22 22 28 27 31 30 30 30 31 28 26 21 23 20 21 17 16 14 16 16 16 15 15 15 12 12 13 15 17 19 12 24 25 25 22 20 27 28 23 14 13 14 18 18 26 25 15 44 45 46 50 51 52
42 39 38 35 36 37 26 22 19 21 23 19 12 11 9 10 12 12 11 13 12 13 12 12 14 14 15 14 14 17 20 21 20 19 18 19 24 27 30 31 32 29 31 30 26 27 27 22 20 21 20 13 14 16 17 16 16 16 15 11 9 8 11 8 15 12 11 18 20 23 24 33 30 20 18 17 17 17 19 20 35 25 45 46 46 47 53 51
36 32 33 37 38 36 24 19 17 22 13 15 12 12 15 25 10 7 11 13 15 13 12 13 15 15 14 13 14 17 18 20 19 18 20 27 28 28 30 33 32 31 30 28 34 32 35 34 25 20 20 18 14 16 18 17 17 17 15 12 9 8 12 13 16 16 11 11 12 25 23 31 38 34 25 19 18 17 19 19 27 31 38 46 47 46 51 52
34 34 38 39 40 28 24 21 24 22 16 14 16 19 19 17 12 16 11 16 16 16 17 14 13 14 14 16 17 18 17 20 21 19 25 29 31 30 32 32 31 31 30 29 33 34 48 33 30 24 24 22 20 16 18 19 18 17 15 14 11 8 8 14 19 25 14 17 13 16 27 29 34 35 36 27 26 21 21 19 27 26 38 46 47 46 48 53
37 37 37 39 33 30 25 21 20 20 17 14 15 17 19 16 14 12 16 18 16 16 17 17 18 18 20 20 19 19 19 21 23 25 32 32 30 32 32 31 31 29 28 28 34 37 34 32 37 34 29 24 24 25 18 19 19 18 16 14 12 12 10 12 17 29 19 16 14 19 17 27 33 42 29 28 24 20 20 21 28 24 41 46 47 47 46 51
38 35 35 34 35 32 26 25 22 17 16 19 19 19 18 18 17 16 17 17 16 17 19 21 19 19 19 19 19 20 21 24 27 29 33 33 32 34 32 32 31 29 29 32 45 35 32 31 34 34 28 23 22 22 19 19 18 19 18 14 13 10 12 12 12 28 17 33 22 19 23 31 35 40 34 28 26 26 24 23 27 20 28 46 46 47 47 49
33 33 35 34 35 32 30 30 28 27 25 23 20 20 19 20 21 21 16 17 22 21 22 22 21 21 21 20 19 19 19 24 27 31 34 33 32 32 32 32 29 28 36 44 41 32 29 31 33 35 35 33 38 41 36 24 19 17 17 16 12 11 11 14 21 29 19 38 26 31 36 32 30 29 30 26 27 27 27 36 47 50 54 52 47 49 48 48
35 34 33 34 34 31 30 30 30 29 28 26 23 22 21 23 22 18 19 21 22 22 21 22 22 20 21 19 19 19 19 23 27 30 30 31 32 32 32 30 28 32 41 37 38 29 31 32 30 37 38 36 35 35 33 23 17 17 16 16 13 10 10 14 14 18 36 31 22 36 39 31 31 33 36 35 29 28 34 43 47 50 54 54 48 50 57 49
33 33 35 37 34 32 31 32 32 31 29 25 25 26 24 22 23 24 21 20 19 23 21 28 25 24 20 21 20 20 23 24 26 26 30 31 31 31 31 31 29 31 36 29 31 27 26 27 30 30 29 30 31 30 29 30 25 17 16 16 14 10 10 10 22 25 32 29 29 41 40 38 31 27 32 36 34 32 37 42 45 48 50 53 51 49 49 47
36 35 34 37 34 34 34 34 34 31 29 27 29 26 22 23 24 23 23 21 21 21 25 23 22 22 23 22 22 21 26 22 25 30 29 29 30 32 33 31 29 31 30 30 29 29 26 27 31 28 28 30 30 32 34 29 29 28 20 17 17 12 9 10 15 22 25 35 38 46 42 34 27 27 27 29 39 34 38 41 43 42 46 51 51 49 48 57
36 36 37 38 38 36 35 34 32 32 31 33 28 26 30 28 24 26 26 22 21 21 22 22 22 21 22 23 26 22 23 26 29 28 30 29 30 34 32 30 31 30 28 28 29 29 27 28 32 27 30 31 30 32 30 29 27 27 29 24 17 15 10 10 10 13 30 22 20 36 41 34 31 25 32 36 39 34 34 32 32 36 43 46 46 49 53 58
41 40 43 40 36 35 36 34 33 33 32 31 29 31 31 31 29 25 23 24 23 25 25 22 23 23 22 24 24 24 25 26 26 26 28 28 27 30 32 31 30 28 27 27 29 28 27 25 24 27 30 30 29 32 30 28 28 28 28 28 28 26 12 10 12 12 26 33 27 35 35 36 37 33 41 40 39 37 37 38 37 36 39 42 43 45 49 56
43 43 42 43 35 37 34 33 33 33 31 31 32 31 31 30 29 33 28 27 26 29 27 23 24 24 23 24 24 25 25 24 24 24 25 26 25 27 28 30 29 28 27 26 28 27 27 24 23 24 27 30 30 28 28 28 28 28 29 30 37 36 28 11 11 17 21 30 24 33 34 40 36 36 31 33 37 39 41 41 41 42 42 38 36 39 45 49